Regional Weather Roundup
Issued by NWS New Orleans/Baton Rouge, LA

Current Version | Previous Version | Text Only | Print | Product List | Glossary On
Versions: 1 2 3 4 5 6 7 8 9 10 11 12 13 14 15 16 17 18 19 20 21 22 23 24 25 26 27 28
000
ASUS44 KLIX 260211
RWRLIX
NEW ORLEANS REGIONAL WEATHER ROUNDUP
NATIONAL WEATHER SERVICE NEW ORLEANS LA
900 PM CDT WED MAY 25 2016

NOTE: "FAIR" INDICATES FEW OR NO CLOUDS BELOW 12,000 FEET WITH NO
      SIGNIFICANT WEATHER AND/OR OBSTRUCTIONS TO VISIBILITY.
      SKY/WX - SKY CONDITION AND SIGNIFICANT WEATHER.
      TMP - AIR TEMPERATURE.     DP    - DEWPOINT TEMPERATURE.
      RH  - RELATIVE HUMIDITY.   PRES  - PRESSURE.
      HI  - HEAT INDEX.          WCI   - WIND CHILL INDEX.

*  THESE STATIONS ARE NOT NWS OR FAA STATIONS AND ARE NOT UNDER
   NWS QUALITY CONTROL.

LAZ038-040-048-061>063-065>067-069-260300-
SOUTHEAST LOUISIANA

CITY           SKY/WX    TMP DP  RH WIND       PRES   REMARKS
N.O. AUDUBON   NOT AVBL
N.O. INTL ARPT MOCLDY    79  72  79 S8        30.10S
N.O. LAKEFRONT CLEAR     79  71  76 SE10      30.11S
N.O. DOWNTOWN*   N/A     80  73  79 SE8       30.11S
RESERVE*         N/A     80  73  80 SE8       30.10R
SLIDELL        CLEAR     77  72  84 SE5       30.11S
BATON ROUGE    PTCLDY    82  70  66 S7        30.08R
BOOTHVILLE     CLEAR     75  69  81 SE5       30.13S
BELLE CHASSE   MOCLDY    78  73  84 SE8       30.11S
BOGALUSA*        N/A     78  69  73 SE6       30.13S
GALLIANO*      MOCLDY    79  73  81 SE7       30.10S
NEW ROADS*       N/A     80  72  77 S7        30.07R
GONZALES*      CLOUDY    81  73  76 S7        30.08R
HAMMOND*       MOCLDY    79  70  73 SE9       30.10S
HOUMA*         PTCLDY    78  74  88 SE9       30.10R
PORT FOURCHON* PTCLDY    79  73  83 SE14G20   30.10F

$$

MSZ070-080>082-260300-
SOUTHERN MISSISSIPPI

CITY           SKY/WX    TMP DP  RH WIND       PRES   REMARKS
MCCOMB         MOCLDY    78  70  76 SE9       30.12R
GULFPORT       CLEAR     77  68  73 SE3       30.13R
BILOXI         PTCLDY    78  69  74 S5        30.14R
PASCAGOULA     CLEAR     68  66  93 N3        30.15R

$$

COASTAL OBSERVATIONS
LAKE AND NEARSHORE STATIONS

STATION/POSITION TIME  TEMP    WIND        PRES    WAVE
                       AIR SEA DIR/SP/G            HT/PER
                 (UTC) (F)     (DEG/KT/KT) (MB)    (FT/S)
PASCAGOULA       0100                      1019.9
WAVELAND YACHT   0100      82              1020.0
GRAND ISLE       0100      83              1019.8
SOUTHWEST PASS   0100          120/ 11/ 13   N/A
NEW CANAL        0100      81              1018.8
SHELL BEACH      0100      82              1020.1

OFFSHORE STATIONS

STATION/POSITION TIME  TEMP    WIND        PRES    WAVE
                       AIR SEA DIR/SP/G            HT/PER
                 (UTC) (F)     (DEG/KT/KT) (MB)    (FT/S)
64 S DAUPHIN ISL 0100   77 78  120/  8/ 10 1020.0

$$





USA.gov is the U.S. government's official web portal to all federal, state and local government web resources and services.